Simultaneous Nadir Overpasses (SNOs) Predictions

Prediction of SNOs near equator between AQUA and NPP Satellite Orbit:

Table of predicted SNOs near equator for the next 14.0 days since TLE Epoch: 3/22/2013
Index Date (AQUA) Time (AQUA) AQUA Lat,Lon Date (NPP) Time (NPP) NPP Lat,Lon Distance(km) Time Diff (sec)
1 03/23/2013 17:15:30 4.66, -55.58 03/23/2013 17:05:56 4.54, -56.27 78.65 574
2 03/26/2013 09:31:33 3.03, 60.65 03/26/2013 09:22:25 2.85, 59.87 89.45 548
3 03/29/2013 00:59:21 -6.03, 8.28 03/29/2013 00:49:25 -5.87, 7.66 70.43 596
4 03/31/2013 17:15:21 -4.33, 124.53 03/31/2013 17:05:53 -4.18, 123.81 81.54 568
5 04/03/2013 08:49:33 29.99, 66.85 04/03/2013 08:39:33 30.19, 65.93 90.89 600
6 04/03/2013 09:31:21 -2.60,-119.22 04/03/2013 09:22:21 -2.44,-120.04 92.82 540
